This is the latest recevied weather packets stored in our database for station/object KD8TSA. If no packets are shown the sender has not sent any weather packets the latest 10 day(s).
| Time | Temp. | Humidity | Pressure | Rain* | Wind** | Luminosity | Snow |
|---|---|---|---|---|---|---|---|
| 1777647042 | 11.11° C | 74% | 1011.3 hPa | 0 mm | - | 116 W/m² | - |
| 1777646129 | 11.11° C | 75% | 1011.2 hPa | 0 mm | - | 94 W/m² | - |
| 1777645827 | 11.11° C | 76% | 1011.1 hPa | 0 mm | - | 117 W/m² | - |
| 1777645524 | 11.11° C | 76% | 1010.9 hPa | 0 mm | - | 81 W/m² | - |
| 1777645220 | 10.56° C | 76% | 1010.7 hPa | 0 mm | - | 133 W/m² | - |
| 1777644915 | 11.11° C | 76% | 1010.8 hPa | 0 mm | - | 52 W/m² | - |
| 1777644614 | 11.11° C | 75% | 1011.2 hPa | 0 mm | - | 57 W/m² | - |
| 1777644309 | 11.11° C | 76% | 1010.9 hPa | 0 mm | - | 122 W/m² | - |
| 1777644006 | 11.11° C | 76% | 1011.1 hPa | 0 mm | - | 71 W/m² | - |
| 1777643703 | 11.11° C | 76% | 1011.2 hPa | 0 mm | - | 123 W/m² | - |
| 1777642793 | 10° C | 78% | 1011.3 hPa | 0 mm | - | 157 W/m² | - |
| 1777642490 | 10° C | 79% | 1011.6 hPa | 0 mm | - | 101 W/m² | - |
| 1777642186 | 10° C | 79% | 1011.4 hPa | 0 mm | - | 177 W/m² | - |
| 1777641884 | 9.44° C | 80% | 1011.5 hPa | 0 mm | - | 111 W/m² | - |
| 1777641283 | 8.89° C | 80% | 1011.7 hPa | 0 mm | - | 108 W/m² | - |
| 1777640980 | 8.89° C | 80% | 1011.8 hPa | 0 mm | - | 73 W/m² | - |
| 1777639767 | 8.33° C | 80% | 1011.6 hPa | 0 mm | - | 63 W/m² | - |
| 1777638857 | 8.33° C | 82% | 1011.8 hPa | 0 mm | - | 82 W/m² | - |
| 1777638250 | 8.33° C | 82% | 1011.5 hPa | 0 mm | - | 81 W/m² | - |
| 1777637946 | 7.78° C | 82% | 1011.8 hPa | 0 mm | - | 70 W/m² | - |
| 1777637036 | 7.78° C | 81% | 1011.5 hPa | 0 mm | - | 36 W/m² | - |
| 1777636731 | 7.78° C | 81% | 1011.6 hPa | 0 mm | - | 37 W/m² | - |
| 1777636124 | 7.22° C | 81% | 1011.6 hPa | 0 mm | - | 44 W/m² | - |
| 1777635819 | 7.22° C | 82% | 1011.6 hPa | 0 mm | - | 59 W/m² | - |
| 1777635516 | 6.67° C | 82% | 1011.7 hPa | 0 mm | - | 31 W/m² | - |
* Rain latest hour (hover to see other rain measurements)
** Current wind speed in m/s (hover to see current wind gust speed)